This is the latest recevied weather packets stored in our database for station/object KV4OP. If no packets are shown the sender has not sent any weather packets the latest 1 day(s).
| Time | Temp. | Humidity | Pressure | Rain* | Wind** | Luminosity | Snow |
|---|---|---|---|---|---|---|---|
| 1778037641 | 20° C | 79% | 1016.9 hPa | 0 mm | - | - | - |
| 1778037339 | 20° C | 79% | 1017 hPa | 0 mm | - | - | - |
| 1778037039 | 20.56° C | 79% | 1017 hPa | 0 mm | - | - | - |
| 1778036739 | 20.56° C | 79% | 1016.9 hPa | 0 mm | - | - | - |
| 1778036440 | 20° C | 79% | 1016.9 hPa | 0 mm | - | - | - |
| 1778035539 | 20° C | 78% | 1016.9 hPa | 0 mm | - | - | - |
| 1778035239 | 20.56° C | 77% | 1016.8 hPa | 0 mm | - | - | - |
| 1778034939 | 20.56° C | 76% | 1016.8 hPa | 0 mm | - | - | - |
| 1778034651 | 21.11° C | 75% | 1016.9 hPa | 0 mm | - | - | - |
| 1778034038 | 21.67° C | 72% | 1016.8 hPa | 0 mm | - | - | - |
| 1778033738 | 22.22° C | 71% | 1016.7 hPa | 0 mm | - | - | - |
| 1778033439 | 22.22° C | 70% | 1016.7 hPa | 0 mm | - | - | - |
| 1778032837 | 22.22° C | 70% | 1016.6 hPa | 0 mm | - | - | - |
| 1778032297 | 22.22° C | 70% | 1016.5 hPa | 0 mm | - | - | - |
| 1778031939 | 22.22° C | 70% | 1016.5 hPa | 0 mm | - | - | - |
| 1778031637 | 22.22° C | 69% | 1016.6 hPa | 0 mm | - | - | - |
| 1778031336 | 22.78° C | 69% | 1016.4 hPa | 0 mm | - | - | - |
| 1778031036 | 22.78° C | 68% | 1016.5 hPa | 0 mm | - | - | - |
| 1778030736 | 22.78° C | 68% | 1016.5 hPa | 0 mm | - | - | - |
| 1778030439 | 22.78° C | 67% | 1016.6 hPa | 0 mm | - | - | - |
| 1778029836 | 23.33° C | 66% | 1016.4 hPa | 0 mm | - | - | - |
| 1778029535 | 23.33° C | 66% | 1016.3 hPa | 0 mm | - | - | - |
| 1778029246 | 23.33° C | 66% | 1016.3 hPa | 0 mm | - | - | - |
| 1778028634 | 23.33° C | 65% | 1016.1 hPa | 0 mm | - | - | - |
| 1778028335 | 23.33° C | 65% | 1016 hPa | 0 mm | - | - | - |
* Rain latest hour (hover to see other rain measurements)
** Current wind speed in m/s (hover to see current wind gust speed)